User: anonymous   Login
Location: Unspecified
(0.0000°N, 0.0000°E)
Time: 19:22:20
(UTC+00:00)
Language:

RISAT 1 - Orbit

View from above orbital plane
View from above orbital plane
View from above satellite
View from above satellite

Ground track
Ground track

The orbit data is extracted from the following two-line orbital elements,

1 38248U 12017A   17178.95513222 +.00000907 +00000-0 +61196-4 0  9992
2 38248 097.5723 186.4839 0004942 022.7636 005.1272 15.09111474284862
Epoch (UTC): 27 June 2017 22:55:23
Eccentricity: 0.0004942
inclination: 97.5723°
perigee height: 535 km
apogee height: 542 km
right ascension of ascending node: 186.4839°
argument of perigee: 22.7636°
revolutions per day: 15.09111474
mean anomaly at epoch: 5.1272°
orbit number at epoch: 28486

The dashed part of the orbit path shows where the satellite is in the earth's shadow,  

DLR